Regional Weather Roundup
Issued by NWS Goodland, KS

Home | Current Version | Previous Version | Graphics & Text | Print | Product List | Glossary On
Versions: 1 2 3 4 5 6 7 8 9 10 11 12 13 14 15 16 17 18 19 20 21 22 23 24 25 26 27 28 29 30 31 32 33 34 35 36 37 38 39 40 41 42 43 44 45 46 47 48 49 50
000
ASUS43 KGLD 020759
RWRGLD

GOODLAND FORECAST AREA HOURLY WEATHER ROUNDUP
NATIONAL WEATHER SERVICE GOODLAND KS
200 AM MDT WED SEP 02 2015

...OFFICIAL OBSERVATIONS...

CITY           SKY/WX    TMP DP  RH WIND       PRES   REMARKS
GOODLAND KS    CLEAR     70  58  65 SW8       29.97F
HILL CITY KS   PTCLDY    79  57  46 SW14G22   29.91F
IMPERIAL NEB   CLEAR     65  56  72 SW7       29.94S
MCCOOK NEB     CLEAR     67  57  70 CALM      29.90F
AKRON CO       PTCLDY    63  49  60 SW9       30.05S
BURLINGTON CO  MOCLDY    68  55  63 SW7       30.01F
LIMON CO       MOCLDY    64  50  60 W8        30.10F
$$

...UNOFFICIAL OBSERVATIONS...

CITY           SKY/WX    TMP DP  RH WIND       PRES   REMARKS
COLBY KS       CLEAR     70  61  73 S9        29.96S
LENORA KS        N/A     77  32  19 MISG        N/A
NORTON KS      CLEAR     75  54  46 S9        29.90F
YUMA CO          N/A     64  56  75 NW8         N/A
$$


USA.gov is the U.S. government's official web portal to all federal, state and local government web resources and services.